Previsão horária em Ploskyi Potik

Hoje, 13 Abril, Terça-feira

Tempo Temperatura Precipitação Vento Pressão Humidade
00:00 +14°C° 0 mm 2 m/s 728 mmHg 74%
01:00 +13°C° 0 mm 2 m/s 727 mmHg 75%
02:00 +10°C° 0 mm 1 m/s 727 mmHg 91%
03:00 +11°C° 0 mm 1 m/s 727 mmHg 87%
04:00 +10°C° 0 mm 2 m/s 727 mmHg 90%
05:00 +10°C° 0 mm 2 m/s 727 mmHg 86%
06:00 +10°C° 0 mm 2 m/s 727 mmHg 87%
07:00 +10°C° 0 mm 3 m/s 727 mmHg 90%
08:00 +10°C° 0 mm 2 m/s 727 mmHg 93%
09:00 +12°C° 0 mm 2 m/s 727 mmHg 93%
10:00 +12°C° 0 mm 3 m/s 727 mmHg 92%
11:00 +12°C° 0 mm 4 m/s 726 mmHg 91%
12:00 +13°C° 0 mm 4 m/s 726 mmHg 91%
13:00 +13°C° 0 mm 4 m/s 726 mmHg 91%
14:00 +12°C° 0.1 mm 5 m/s 725 mmHg 91%
15:00 +11°C° 0 mm 4 m/s 725 mmHg 90%
16:00 +9°C° 0 mm 5 m/s 725 mmHg 91%
17:00 +7°C° 0.5 mm 5 m/s 725 mmHg 95%
18:00 +6°C° 0.2 mm 5 m/s 724 mmHg 97%
19:00 +6°C° 0.4 mm 5 m/s 724 mmHg 98%
20:00 +5°C° 1.3 mm 5 m/s 724 mmHg 99%
21:00 +5°C° 1.9 mm 5 m/s 723 mmHg 99%
22:00 +5°C° 1.2 mm 5 m/s 723 mmHg 99%
23:00 +5°C° 0.3 mm 4 m/s 722 mmHg 97%

Amanhã, 14 Abril, Quarta-feira

Tempo Temperatura Precipitação Vento Pressão Humidade
00:00 +5°C° 0 mm 5 m/s 722 mmHg 95%
01:00 +4°C° 0.1 mm 4 m/s 722 mmHg 98%
02:00 +4°C° 0.1 mm 4 m/s 722 mmHg 97%
03:00 +4°C° 0 mm 4 m/s 721 mmHg 94%
04:00 +4°C° 0.1 mm 3 m/s 721 mmHg 95%
05:00 +3°C° 0.1 mm 3 m/s 721 mmHg 95%
06:00 +4°C° 0 mm 2 m/s 721 mmHg 94%
07:00 +3°C° 0 mm 3 m/s 721 mmHg 92%
08:00 +2°C° 0 mm 3 m/s 721 mmHg 93%
09:00 +2°C° 0.1 mm 3 m/s 721 mmHg 94%
10:00 +3°C° 0 mm 4 m/s 721 mmHg 92%
11:00 +1°C° 0.1 mm 4 m/s 721 mmHg 95%
12:00 +3°C° 0.2 mm 4 m/s 721 mmHg 94%
13:00 +2°C° 0.2 mm 5 m/s 721 mmHg 94%
14:00 +2°C° 0.4 mm 5 m/s 721 mmHg 95%
15:00 +2°C° 0.3 mm 5 m/s 721 mmHg 94%
16:00 +3°C° 0.2 mm 4 m/s 721 mmHg 93%
17:00 +3°C° 0.1 mm 4 m/s 721 mmHg 92%
18:00 +1°C° 0.1 mm 4 m/s 721 mmHg 92%
19:00 +2°C° 0 mm 3 m/s 721 mmHg 92%
20:00 +1°C° 0 mm 3 m/s 721 mmHg 93%
21:00 +1°C° 0 mm 3 m/s 721 mmHg 93%
22:00 +1°C° 0 mm 3 m/s 721 mmHg 93%
23:00 +2°C° 0 mm 2 m/s 721 mmHg 94%

Depois de amanhã, 15 Abril, Quinta-feira

Tempo Temperatura Precipitação Vento Pressão Humidade
00:00 +2°C° 0 mm 2 m/s 721 mmHg 95%
01:00 +3°C° 0 mm 1 m/s 721 mmHg 97%
02:00 +2°C° 0 mm 2 m/s 721 mmHg 98%
03:00 +1°C° 0.1 mm 2 m/s 721 mmHg 100%
04:00 +1°C° 0.2 mm 2 m/s 720 mmHg 100%
05:00 +1°C° 0.4 mm 2 m/s 721 mmHg 100%
06:00 +1°C° 0.4 mm 2 m/s 721 mmHg 100%
07:00 +1°C° 0.2 mm 2 m/s 721 mmHg 100%
08:00 +1°C° 0.3 mm 2 m/s 721 mmHg 100%
09:00 +2°C° 0.5 mm 2 m/s 721 mmHg 100%
10:00 +2°C° 0.4 mm 2 m/s 722 mmHg 100%
11:00 +3°C° 0.6 mm 2 m/s 722 mmHg 100%
12:00 +3°C° 0.8 mm 2 m/s 722 mmHg 100%
13:00 +4°C° 0.8 mm 2 m/s 722 mmHg 100%
14:00 +4°C° 1.4 mm 2 m/s 722 mmHg 100%
15:00 +3°C° 1.1 mm 3 m/s 722 mmHg 100%
16:00 +3°C° 0.7 mm 4 m/s 722 mmHg 100%
17:00 +3°C° 0.6 mm 4 m/s 722 mmHg 100%
18:00 +1°C° 0.2 mm 4 m/s 722 mmHg 100%
19:00 +1°C° 0.4 mm 4 m/s 722 mmHg 100%
20:00 0°C° 0.3 mm 4 m/s 722 mmHg 100%
21:00 +1°C° 2.5 mm 3 m/s 722 mmHg 100%
22:00 +1°C° 1.2 mm 3 m/s 721 mmHg 100%
23:00 +2°C° 0.5 mm 2 m/s 721 mmHg 100%

16 Abril, Sexta-feira

Tempo Temperatura Precipitação Vento Pressão Humidade
00:00 +1°C° 0.7 mm 2 m/s 721 mmHg 100%
01:00 +2°C° 2 mm 1 m/s 721 mmHg 100%
02:00 +2°C° 3.1 mm 1 m/s 721 mmHg 100%
03:00 +2°C° 3.1 mm 1 m/s 721 mmHg 100%
04:00 +1°C° 1.1 mm 1 m/s 721 mmHg 100%
05:00 +1°C° 0.8 mm 1 m/s 721 mmHg 100%
06:00 +1°C° 0.3 mm 1 m/s 721 mmHg 100%
07:00 +2°C° 0.2 mm 1 m/s 721 mmHg 100%
08:00 +2°C° 0.1 mm 1 m/s 722 mmHg 100%
09:00 +2°C° 0 mm 1 m/s 722 mmHg 100%
10:00 +3°C° 0 mm 1 m/s 723 mmHg 100%
11:00 +3°C° 0 mm 1 m/s 723 mmHg 100%
12:00 +3°C° 0 mm 1 m/s 723 mmHg 100%
13:00 +4°C° 0 mm 1 m/s 723 mmHg 100%
14:00 +4°C° 0 mm 0 m/s 724 mmHg 100%
15:00 +5°C° 0 mm 1 m/s 724 mmHg 100%
16:00 +6°C° 0 mm 1 m/s 724 mmHg 100%
17:00 +6°C° 0 mm 1 m/s 724 mmHg 100%
18:00 +6°C° 0 mm 1 m/s 724 mmHg 100%
19:00 +6°C° 0 mm 1 m/s 724 mmHg 100%
20:00 +6°C° 0 mm 1 m/s 725 mmHg 100%
21:00 +6°C° 0 mm 1 m/s 725 mmHg 100%
22:00 +5°C° 0.1 mm 2 m/s 725 mmHg 100%
23:00 +5°C° 0.4 mm 2 m/s 725 mmHg 100%

17 Abril, Sábado

Tempo Temperatura Precipitação Vento Pressão Humidade
00:00 +6°C° 0.5 mm 1 m/s 725 mmHg 100%
01:00 +6°C° 0 mm 1 m/s 725 mmHg 100%
02:00 +5°C° 0 mm 0 m/s 725 mmHg 100%
03:00 +6°C° 0 mm 1 m/s 725 mmHg 100%
04:00 +5°C° 0 mm 0 m/s 725 mmHg 100%
05:00 +6°C° 0 mm 1 m/s 725 mmHg 100%
06:00 +6°C° 0 mm 1 m/s 725 mmHg 100%
07:00 +6°C° 0 mm 1 m/s 725 mmHg 100%
08:00 +6°C° 0 mm 2 m/s 725 mmHg 100%
09:00 +7°C° 0 mm 3 m/s 726 mmHg 99%
10:00 +8°C° 0 mm 3 m/s 726 mmHg 97%
11:00 +9°C° 0 mm 3 m/s 726 mmHg 94%
12:00 +10°C° 0 mm 3 m/s 726 mmHg 91%
13:00 +11°C° 0.1 mm 3 m/s 726 mmHg 90%
14:00 +11°C° 0.2 mm 4 m/s 726 mmHg 87%
15:00 +12°C° 0 mm 5 m/s 726 mmHg 85%
16:00 +11°C° 0 mm 4 m/s 726 mmHg 85%
17:00 +11°C° 0 mm 4 m/s 726 mmHg 85%
18:00 +11°C° 0 mm 4 m/s 726 mmHg 84%
19:00 +10°C° 0 mm 4 m/s 725 mmHg 88%
20:00 +8°C° 0 mm 3 m/s 726 mmHg 92%
21:00 +8°C° 0 mm 3 m/s 726 mmHg 94%
22:00 +7°C° 0 mm 3 m/s 726 mmHg 95%
23:00 +7°C° 0 mm 3 m/s 726 mmHg 93%

18 Abril, Domingo

Tempo Temperatura Precipitação Vento Pressão Humidade
00:00 +6°C° 0 mm 4 m/s 725 mmHg 93%
01:00 +6°C° 0 mm 4 m/s 725 mmHg 93%
02:00 +5°C° 0 mm 4 m/s 725 mmHg 93%
03:00 +6°C° 0 mm 4 m/s 725 mmHg 91%
04:00 +7°C° 0 mm 3 m/s 725 mmHg 89%
05:00 +7°C° 0 mm 3 m/s 725 mmHg 89%
06:00 +7°C° 0 mm 3 m/s 725 mmHg 88%
07:00 +7°C° 0 mm 3 m/s 726 mmHg 89%
08:00 +9°C° 0 mm 3 m/s 726 mmHg 90%
09:00 +10°C° 0 mm 2 m/s 726 mmHg 86%
10:00 +12°C° 0 mm 1 m/s 727 mmHg 81%
11:00 +12°C° 0.1 mm 1 m/s 727 mmHg 91%
12:00 +12°C° 0 mm 2 m/s 727 mmHg 92%
13:00 +12°C° 0.7 mm 2 m/s 727 mmHg 100%
14:00 +12°C° 0.1 mm 3 m/s 727 mmHg 97%
15:00 +13°C° 0 mm 4 m/s 726 mmHg 85%
16:00 +10°C° 1 mm 5 m/s 726 mmHg 100%
17:00 +9°C° 0.9 mm 5 m/s 727 mmHg 100%
18:00 +10°C° 0.9 mm 4 m/s 727 mmHg 100%
19:00 +10°C° 0.2 mm 3 m/s 726 mmHg 98%
20:00 +10°C° 0.1 mm 4 m/s 727 mmHg 95%
21:00 +8°C° 0 mm 5 m/s 727 mmHg 94%
22:00 +8°C° 0 mm 4 m/s 727 mmHg 95%
23:00 +8°C° 0.3 mm 4 m/s 727 mmHg 100%
Mostrar mais

Necessitamos do seu Consentimento

A Meteoprog e os seus Fornecedores de Serviços podem armazenar e aceder a dados pessoais como cookies, identificadores do dispositivo ou outras tecnologias semelhantes existentes no seu dispositivo e processar estes dados para personalizar conteúdos e anúncios, assim como funcionalidades nas redes sociais e análise de tráfego.

  • Armazenar e/ou aceder a informações no seu dispositivo

    Os cookies, identificadores do dispositivo ou outras informações podem ser armazenados ou acedidos no seu dispositivo, para os fins acima indicados.

  • Anúncios e conteúdos personalizados, medição de anúncios e conteúdos, dados sobre o público-alvo e desenvolvimento de produtos

    Os anúncios e os conteúdos podem ser personalizados com base num perfil. Podem ser adicionados dados adicionais para uma maior personalização dos anúncios e dos conteúdos. A eficácia dos anúncios e dos conteúdos pode ser medida. Podem ser obtidas informações sobre o público que visualizou os anúncios e os conteúdos. Estes dados podem ser usados para desenvolver ou melhorar sistemas, softwares ou a experiência do utilizador.

Ao clicar em "Eu concordo”, permitirá o uso de cookies, identificadores do dispositivo e web beacons mencionados ou outras tecnologias semelhantes. As configurações do navegador do seu dispositivo podem ser alteradas.

Para certos fins, podem ser invocados interesses legítimos ao invés de consentimento. Pode ler mais informação sobre este assunto na nossa Política de Privacidade e Cookies.